Location: Lombard
(41.8800°N, 88.0080°W)
Time: 19:18:52
(UTC-06:00)

ISS - Visible Passes

Search period start: 28 November 2023 00:00
Search period end: 08 December 2023 00:00
Orbit: 416 x 418 km, 51.6° (Epoch: 28 November)

Date Brightness Start Highest point End Pass type
(mag) Time Alt. Az. Time Alt. Az. Time Alt. Az.
28 Nov -1.6 18:17:30 10° NW 18:18:56 18° NNW 18:18:56 18° NNW visible
29 Nov -2.0 17:29:16 10° NW 17:31:46 19° NNE 17:32:40 17° NE visible
30 Nov -2.3 18:17:23 10° NW 18:19:23 28° NNW 18:19:23 28° NNW visible
01 Dec -2.7 17:29:06 10° NW 17:32:05 29° NNE 17:33:14 23° ENE visible
01 Dec -0.6 19:05:42 10° WNW 19:06:10 13° WNW 19:06:10 13° WNW visible
02 Dec -3.5 18:17:12 10° WNW 18:20:09 66° WNW 18:20:09 66° WNW visible
03 Dec -3.7 17:28:44 10° NW 17:32:04 60° NNE 17:34:20 19° ESE visible
03 Dec -0.6 19:06:15 10° W 19:07:16 14° WSW 19:07:16 14° WSW visible
04 Dec -1.8 18:17:12 10° WNW 18:20:08 28° SW 18:21:45 19° S visible
05 Dec -2.9 17:28:24 10° WNW 17:31:41 50° SW 17:34:55 10° SE visible
06 Dec -0.3 18:18:40 10° WSW 18:19:20 10° SW 18:19:58 10° SW visible
07 Dec -0.7 17:28:31 10° W 17:30:53 18° SW 17:33:15 10° S visible
